User: anonymous   Login
Location: Hartman Creek State Park
(44.3257°N, 89.2134°W)
Time: 18:44:01
(UTC-06:00)
Language:

BREEZE-M DEB (TANK) - Orbit

View from above orbital plane
View from above orbital plane
View from above satellite
View from above satellite

Ground track
Ground track

The orbit data is extracted from the following two-line orbital elements,

1 29649U 06056B   17015.61425192 +.00000714 +00000-0 +17728-3 0  9991
2 29649 049.5041 345.2325 5378220 066.2015 340.2403 04.99145769180162
Epoch (UTC): 15 January 2017 14:44:31
Eccentricity: 0.5378220
inclination: 49.5041°
perigee height: 306 km
apogee height: 15863 km
right ascension of ascending node: 345.2325°
argument of perigee: 66.2015°
revolutions per day: 4.99145769
mean anomaly at epoch: 340.2403°
orbit number at epoch: 18016

The dashed part of the orbit path shows where the satellite is in the earth's shadow,  

DLR